Location: Crni Vrh Observatory
(45.9460°N, 14.0712°E)
Time: 22:45:25
(UTC+01:00)

Tiangong - Visible Passes

Search period start: 30 November 2023 00:00
Search period end: 10 December 2023 00:00
Orbit: 374 x 384 km, 41.5° (Epoch: 30 November)

Date Brightness Start Highest point End Pass type
(mag) Time Alt. Az. Time Alt. Az. Time Alt. Az.
30 Nov -0.2 17:35:40 10° WSW 17:38:22 26° SSW 17:41:04 10° SE visible
01 Dec 0.7 18:11:17 10° WSW 18:13:05 14° SSW 18:14:52 10° S visible
02 Dec 0.4 17:09:10 10° WSW 17:11:36 20° SSW 17:14:01 10° SSE visible
